Tracking 25372 objects as of 24-Jan-2022
HD Live streaming from Space Station
objects crossing your sky now

USA 65

Track USA 65 now!
USA 65 is classified as:


NORAD ID: 20929
Int'l Code: 1990-095A
Perigee: 36,295.3 km
Apogee: 36,358.7 km
Inclination: 15.0 °
Period: 1,463.4 minutes
Semi major axis: 42698 km
RCS: Unknown
Launch date: November 13, 1990
Source: United States (US)
Launch site: AIR FORCE EASTERN TEST RANGE (AFETR)
aabbcc
Your satellite tracking list
Your tracking list is empty




NASA's NSSDC Master Catalog

Two Line Element Set (TLE):
1 20929U 90095A   22022.68121278 -.00000204  00000-0  00000-0 0  9995
2 20929  14.9866 355.7682 0007419  53.1031 307.0012  0.98399174  9651
Source of the keplerian elements: McCants